Wind_Speed
74 69 64 60 58 57 57 56 56 57 59 61 62 62 63 63 63 63 64 64 66 67 69 70 71 72 72 72 73 74 75 75 76 76 76 76 75 75 75 75 74 74
76 71 66 62 61 59 59 58 57 57 58 58 58 58 58 58 59 61 62 63 64 66 68 69 71 71 72 72 73 74 74 75 76 77 77 77 77 77 77 77 77 76
79 74 68 65 63 61 60 60 60 59 58 58 58 58 58 59 60 61 63 65 67 69 70 72 72 73 73 73 73 74 74 75 76 77 77 78 78 78 79 79 79 79
81 76 71 68 65 63 62 62 62 61 60 60 61 61 62 62 63 65 66 68 70 73 74 76 76 76 75 75 74 74 74 75 76 76 77 78 79 79 80 80 81 81
83 79 74 70 67 64 64 63 63 62 62 62 63 64 65 66 67 68 69 71 73 75 77 78 79 79 79 78 76 75 75 76 76 77 77 78 79 80 81 82 82 82
86 82 77 73 70 68 67 65 64 63 63 63 64 65 66 68 69 71 72 73 74 76 78 80 80 81 81 80 79 78 76 76 77 78 78 79 80 81 82 83 83 83
88 85 80 76 73 71 70 67 66 64 64 64 65 66 68 69 71 73 74 75 77 79 81 81 82 83 83 82 81 79 78 77 78 78 79 80 81 82 83 84 84 85
89 87 83 80 77 74 72 70 69 67 65 65 66 68 69 71 72 74 76 77 79 81 82 83 84 84 85 84 82 81 79 79 78 79 80 82 83 84 85 86 86 86
90 88 86 83 80 77 74 73 72 70 68 67 68 69 70 71 73 75 77 78 80 82 84 85 85 85 85 84 83 81 80 79 79 80 81 83 85 86 87 88 88 88
90 89 88 86 83 81 78 76 74 72 70 68 68 68 68 70 72 74 76 78 81 83 85 86 86 86 86 85 83 82 81 80 80 81 83 85 86 88 89 90 90 90
90 90 90 88 86 84 82 80 78 76 73 71 69 68 68 70 72 74 76 79 82 85 87 87 87 87 86 85 84 83 82 81 82 83 86 87 88 90 91 92 93 93
91 91 91 90 89 87 86 84 82 80 78 75 73 71 71 72 74 76 79 82 85 87 88 88 88 88 87 86 84 83 83 83 84 86 87 89 91 92 93 94 95 96
91 92 93 92 91 90 89 88 86 84 82 80 77 75 75 75 77 79 82 85 88 90 90 89 89 89 88 87 86 85 85 85 86 88 90 91 93 94 96 97 98 99
93 93 93 93 92 91 91 90 89 88 87 85 82 80 79 79 80 82 84 87 90 91 92 91 90 90 89 88 87 87 87 88 89 90 92 93 95 96 98 99 101 102
94 93 92 92 92 92 92 92 92 91 90 88 87 84 83 82 83 84 86 89 91 93 93 93 92 91 90 90 89 89 90 91 92 93 94 96 97 99 100 101 102 103
94 93 92 92 92 92 93 93 93 93 92 91 90 89 87 86 86 87 89 91 93 95 95 94 93 92 92 91 91 91 92 93 94 96 97 98 100 101 102 103 103 104
95 94 93 93 93 93 94 95 95 95 94 93 93 93 91 89 88 89 91 94 96 97 97 96 94 93 93 93 93 94 95 96 97 98 99 101 102 103 103 104 103 101
97 95 94 94 94 95 95 96 97 97 96 95 95 95 95 92 91 92 94 97 99 99 98 97 95 94 94 94 95 96 97 98 99 100 102 103 103 104 104 102 98 92
99 98 97 96 96 97 97 98 98 98 97 97 97 98 97 94 92 94 97 99 101 101 99 97 96 96 96 97 98 99 100 101 102 103 104 104 104 103 100 93 86 79
102 100 99 98 98 98 98 99 99 99 98 98 98 100 99 96 94 96 99 101 103 102 100 99 98 99 99 100 101 102 103 103 104 105 104 102 98 93 86 79 74 70
105 103 102 101 100 100 99 100 100 100 100 100 100 101 99 97 96 98 101 103 104 102 101 100 101 101 102 102 102 103 103 104 103 101 98 92 86 79 73 68 65 63
108 106 104 103 102 101 100 101 101 101 102 102 102 102 100 97 98 101 103 104 104 103 102 102 103 103 103 102 102 102 100 99 95 90 85 79 74 69 65 62 60 58
110 108 105 104 103 101 101 101 102 102 103 103 103 102 99 98 100 103 104 104 104 104 104 104 104 103 102 101 99 96 92 88 83 79 75 71 67 63 61 59 58 59
112 108 105 104 103 102 101 102 103 103 103 104 103 101 99 100 102 104 105 105 104 105 106 105 103 100 99 96 92 87 81 77 74 71 69 65 62 60 60 60 61 62
111 108 105 104 102 101 101 102 103 103 103 103 102 100 100 102 104 105 106 105 105 106 106 103 99 97 94 89 83 77 73 70 68 66 65 63 62 62 63 63 64 64
111 107 105 103 102 101 101 102 102 103 102 101 100 100 102 103 105 105 105 105 105 105 102 99 96 92 87 80 75 71 68 65 64 64 64 63 63 64 65 65 65 64
Wind_Direction
337 335 331 327 323 319 317 315 312 310 308 307 306 305 306 307 308 308 309 310 310 310 311 311 310 310 310 309 309 308 307 307 306 306 305 304 304 303 302 302 302 302
336 334 331 326 322 319 317 315 314 312 311 311 310 310 311 312 312 313 313 314 313 314 313 313 313 312 311 310 309 307 307 306 305 304 304 303 302 302 301 301 301 301
336 334 330 327 323 320 317 315 313 312 312 312 312 313 313 313 314 315 316 316 316 316 315 315 314 313 312 311 309 307 306 305 304 303 302 302 301 301 301 301 301 301
335 333 331 327 323 320 317 314 312 312 312 311 312 312 312 313 314 315 316 316 316 316 316 315 314 313 312 311 309 308 306 305 304 302 301 300 300 300 300 300 301 301
334 333 331 327 324 320 316 313 311 310 309 309 310 310 311 312 313 314 314 314 314 314 314 313 312 311 310 310 309 307 306 304 303 301 300 299 299 299 299 299 300 300
334 333 331 328 324 321 318 315 311 308 307 307 307 308 309 310 311 312 312 312 311 311 311 311 310 309 308 308 308 307 305 303 302 300 299 298 298 298 298 298 299 299
333 332 330 328 325 322 320 316 312 308 306 306 306 307 308 308 309 309 310 310 309 309 309 309 309 308 307 307 307 306 304 303 301 300 298 297 297 297 297 297 298 298
332 331 329 327 325 323 321 318 314 310 307 306 306 306 306 306 307 308 308 308 308 307 308 308 307 307 306 306 306 305 304 302 301 299 298 297 296 296 297 297 297 298
331 330 328 326 325 324 322 320 316 312 307 306 305 304 304 305 306 306 307 307 306 306 307 307 306 306 306 305 305 304 303 302 300 298 297 296 296 296 297 297 297 297
329 328 327 325 324 323 322 321 319 315 309 305 304 304 304 305 305 306 306 307 307 307 306 306 305 305 305 305 304 303 302 301 299 297 296 296 296 297 297 297 297 297
328 327 326 324 323 322 321 320 320 318 313 307 305 305 305 305 306 307 308 309 309 308 307 305 305 304 304 304 303 302 301 299 298 297 296 297 297 297 297 297 297 297
326 325 324 323 322 321 321 320 319 319 317 312 308 306 306 306 307 308 309 311 311 310 308 306 304 304 304 303 302 301 300 298 297 296 296 296 297 297 297 297 297 297
325 324 323 322 321 320 319 319 319 319 319 317 312 308 308 308 308 308 309 311 312 312 310 307 304 303 303 303 302 301 299 297 296 296 296 296 296 296 296 297 297 297
324 323 322 320 319 318 318 318 318 317 318 318 315 312 309 309 309 309 310 311 312 312 311 307 304 303 303 302 301 300 298 297 296 295 295 296 296 296 297 297 297 297
323 322 320 318 317 316 316 316 316 316 316 316 317 314 311 309 309 310 310 311 312 312 311 308 305 303 302 301 300 299 298 297 296 296 296 296 296 297 297 297 297 297
322 320 319 317 315 314 314 314 314 314 314 315 316 316 313 310 309 310 311 311 312 311 310 308 306 303 302 301 300 299 298 297 297 296 297 297 297 297 297 297 298 298
321 319 317 315 314 313 312 313 313 313 313 314 315 315 314 311 310 310 311 311 311 311 310 308 306 303 301 300 299 298 298 297 297 297 297 297 298 298 298 298 299 299
320 318 316 314 313 312 311 311 312 312 312 313 314 315 314 311 310 310 311 311 311 310 309 308 306 303 301 300 299 299 298 299 298 298 298 298 298 298 298 299 299 299
319 317 316 314 312 311 310 310 310 311 311 312 313 314 313 311 310 311 311 311 311 310 309 308 306 303 301 300 300 300 300 300 299 299 298 298 298 298 298 298 298 298
318 317 315 313 312 311 310 309 309 310 310 311 312 313 312 311 310 311 311 311 310 309 308 307 305 303 302 301 301 301 301 300 299 299 298 298 298 297 297 297 296 296
317 316 314 313 311 310 309 309 309 309 310 310 311 312 311 310 310 310 311 310 309 308 307 306 304 303 302 302 301 301 301 300 299 299 298 298 298 297 296 296 295 294
316 315 314 312 311 309 308 308 308 309 309 309 310 311 310 309 309 310 310 309 308 307 306 304 303 302 301 301 301 301 300 300 299 299 298 298 297 296 295 294 293 292
314 314 313 312 310 308 308 307 307 308 308 309 309 309 309 308 309 309 309 308 307 305 304 303 302 301 301 301 301 301 301 300 299 298 297 297 296 295 295 294 293 292
313 313 312 311 309 307 306 306 306 307 307 308 308 308 308 308 308 308 307 306 305 304 303 303 302 301 301 301 301 301 300 300 298 297 296 295 295 294 294 293 293 292
312 312 311 309 308 306 305 305 306 306 306 307 307 307 307 307 307 307 306 304 303 303 302 302 301 301 301 301 301 300 300 299 297 295 294 294 294 294 293 293 293 293
311 310 309 308 306 305 305 304 305 305 305 305 305 305 306 306 305 305 304 302 302 302 302 302 302 302 301 301 300 299 299 298 296 295 294 294 294 294 294 294 293 293
Height
10534 10530 10526 10522 10518 10515 10511 10508 10505 10501 10497 10493 10490 10487 10484 10480 10476 10473 10469 10466 10463 10458 10454 10450 10446 10443 10440 10437 10433 10430 10426 10422 10418 10415 10412 10409 10407 10404 10401 10399 10398 10396
10530 10526 10522 10517 10513 10509 10505 10501 10498 10494 10491 10487 10484 10481 10478 10475 10471 10467 10464 10460 10457 10453 10449 10444 10440 10436 10433 10430 10426 10422 10419 10415 10411 10407 10403 10400 10397 10395 10392 10389 10387 10385
10525 10521 10517 10512 10508 10504 10500 10496 10492 10488 10485 10481 10478 10475 10472 10469 10465 10462 10458 10454 10450 10446 10442 10438 10433 10429 10425 10422 10418 10414 10411 10407 10403 10399 10395 10391 10388 10385 10381 10379 10376 10374
10520 10516 10511 10507 10503 10498 10494 10490 10486 10482 10479 10475 10471 10468 10465 10462 10458 10455 10451 10447 10443 10439 10435 10431 10426 10422 10418 10414 10410 10406 10402 10399 10395 10391 10387 10383 10379 10376 10372 10369 10366 10363
10515 10511 10506 10502 10497 10493 10489 10484 10479 10475 10472 10468 10465 10461 10457 10454 10450 10447 10443 10440 10436 10432 10428 10423 10419 10414 10410 10406 10402 10398 10394 10390 10386 10382 10379 10375 10371 10367 10363 10360 10357 10353
10508 10504 10500 10496 10491 10487 10483 10478 10473 10469 10465 10461 10457 10454 10450 10446 10442 10438 10435 10432 10428 10424 10420 10416 10410 10406 10402 10397 10393 10389 10385 10381 10377 10372 10369 10366 10362 10358 10354 10350 10348 10344
10500 10496 10492 10488 10484 10480 10476 10471 10467 10462 10457 10453 10450 10446 10442 10438 10434 10430 10427 10424 10420 10415 10411 10407 10402 10397 10392 10388 10384 10380 10376 10372 10367 10363 10359 10355 10352 10348 10344 10340 10338 10334
10491 10487 10484 10480 10476 10471 10467 10463 10459 10454 10450 10446 10442 10438 10434 10430 10426 10422 10419 10415 10411 10406 10401 10397 10393 10387 10383 10378 10374 10370 10366 10361 10357 10353 10349 10344 10340 10337 10333 10329 10326 10323
10482 10478 10474 10470 10467 10463 10459 10454 10450 10446 10442 10438 10434 10431 10426 10422 10418 10414 10410 10406 10402 10397 10392 10387 10382 10377 10373 10368 10364 10360 10356 10352 10347 10343 10338 10333 10329 10325 10321 10318 10314 10311
10474 10470 10466 10462 10458 10454 10450 10446 10442 10438 10434 10430 10426 10423 10418 10414 10409 10405 10401 10396 10392 10387 10382 10377 10372 10367 10362 10358 10354 10350 10346 10342 10337 10332 10327 10322 10318 10313 10309 10306 10302 10299
10466 10461 10457 10453 10450 10446 10442 10439 10435 10430 10426 10422 10418 10414 10410 10405 10400 10396 10391 10387 10382 10376 10371 10366 10361 10356 10352 10347 10343 10339 10335 10331 10326 10320 10315 10311 10306 10301 10296 10293 10289 10285
10458 10453 10448 10444 10441 10437 10433 10430 10426 10422 10417 10412 10408 10404 10400 10395 10391 10386 10381 10376 10371 10366 10360 10355 10350 10345 10340 10336 10332 10328 10323 10319 10314 10309 10304 10299 10294 10289 10284 10280 10276 10272
10449 10444 10439 10434 10431 10427 10423 10419 10415 10411 10407 10403 10398 10394 10390 10385 10381 10376 10371 10366 10360 10355 10349 10344 10339 10333 10329 10325 10321 10316 10312 10307 10302 10297 10292 10287 10282 10277 10272 10268 10263 10259
10440 10435 10430 10425 10421 10416 10412 10409 10405 10401 10397 10393 10389 10384 10379 10375 10371 10365 10360 10355 10349 10344 10338 10332 10327 10322 10317 10313 10309 10305 10300 10295 10290 10285 10281 10276 10271 10266 10260 10255 10251 10246
10431 10426 10422 10417 10412 10408 10403 10399 10396 10392 10388 10384 10379 10374 10369 10365 10360 10355 10349 10344 10338 10333 10327 10321 10316 10310 10305 10301 10297 10293 10288 10283 10278 10273 10268 10264 10259 10253 10248 10243 10238 10234
10422 10417 10413 10409 10404 10400 10395 10391 10387 10383 10379 10374 10369 10364 10359 10354 10349 10343 10338 10333 10328 10322 10316 10310 10304 10299 10294 10289 10285 10281 10276 10271 10266 10261 10256 10251 10246 10241 10235 10230 10225 10221
10413 10409 10404 10400 10395 10391 10386 10382 10377 10373 10368 10364 10359 10353 10348 10343 10337 10332 10326 10321 10316 10311 10305 10299 10293 10287 10282 10278 10273 10269 10264 10259 10254 10249 10244 10238 10232 10227 10222 10217 10213 10208
10404 10400 10395 10391 10386 10381 10376 10372 10367 10362 10358 10353 10348 10343 10337 10332 10326 10321 10315 10309 10304 10298 10293 10287 10281 10275 10270 10265 10261 10256 10252 10247 10242 10236 10231 10225 10220 10214 10209 10205 10201 10196
10394 10390 10385 10380 10376 10371 10366 10361 10356 10352 10347 10342 10337 10331 10326 10321 10315 10309 10303 10297 10292 10286 10281 10275 10269 10263 10257 10252 10247 10243 10238 10233 10228 10222 10217 10212 10207 10202 10197 10193 10190 10186
10384 10380 10375 10370 10365 10360 10355 10350 10345 10341 10336 10331 10326 10320 10315 10309 10304 10298 10292 10285 10279 10274 10269 10263 10256 10250 10244 10239 10234 10229 10224 10219 10214 10208 10203 10198 10194 10190 10186 10183 10179 10176
10374 10369 10364 10359 10354 10349 10344 10339 10333 10329 10324 10319 10315 10309 10304 10298 10292 10286 10280 10273 10267 10262 10257 10251 10244 10237 10231 10226 10221 10217 10212 10206 10200 10194 10189 10185 10182 10179 10176 10173 10170 10167
10364 10359 10353 10348 10343 10337 10332 10327 10321 10317 10312 10307 10303 10298 10292 10287 10280 10274 10268 10262 10255 10249 10244 10238 10232 10225 10219 10214 10210 10205 10200 10194 10187 10181 10176 10173 10171 10168 10166 10164 10161 10158
10353 10348 10342 10337 10331 10326 10321 10315 10310 10305 10300 10295 10290 10285 10280 10275 10269 10262 10256 10250 10243 10237 10231 10226 10220 10213 10207 10202 10198 10194 10189 10183 10177 10171 10166 10164 10162 10159 10156 10154 10151 10149
10342 10337 10331 10326 10320 10315 10309 10304 10299 10294 10289 10283 10278 10273 10268 10262 10256 10250 10243 10237 10231 10224 10218 10213 10208 10201 10195 10191 10186 10182 10178 10173 10167 10162 10158 10155 10154 10151 10147 10145 10142 10140
10330 10325 10320 10314 10309 10304 10298 10293 10288 10282 10277 10272 10266 10261 10256 10250 10244 10237 10231 10225 10219 10212 10206 10200 10195 10189 10184 10179 10175 10171 10168 10164 10159 10153 10150 10148 10146 10142 10139 10136 10133 10130
10317 10312 10307 10302 10297 10292 10287 10281 10276 10271 10265 10260 10255 10249 10244 10238 10232 10226 10219 10213 10207 10200 10193 10187 10182 10177 10172 10167 10164 10161 10159 10156 10151 10145 10142 10140 10137 10134 10130 10126 10123 10121